{"data":{"norad_id":48362,"epoch":"2026-05-25T00:25:05.903616Z","epoch_age_seconds":63658,"freshness":"FRESH","line1":"1 48362U 21038K   26145.01742944 -.00000871  00000+0 -16302-4 0  9999","line2":"2 48362  53.1615   3.1377 0001125  76.7845 283.3282 15.31695835278778","mean_motion":15.31695835,"eccentricity":0.0001125,"inclination_deg":53.1615,"raan_deg":3.1377,"arg_perigee_deg":76.7845,"mean_anomaly_deg":283.3282,"bstar":-1.6302e-5,"rev_number":27877,"period_min":94.013443602528,"perigee_km":469.98191084333,"apogee_km":471.52291096078,"semimajor_km":6848.8894109021,"source":"CELESTRAK","updated_at":"2026-05-25T13:38:16.686286Z"}}